Location: Heiligenberg
(48.5381°N, 7.3897°E)
Time: 21:18:12
(UTC+00:00)

Cosmos 1536 Rocket - Pass Details

Date: 26 May 2022
Orbit: 604 x 632 km, 82.5° (Epoch: 02 July)

Event Time Altitude Azimuth Distance (km) Brightness Sun altitude
Exits shadow 02:08:10 16° 203° (SSW) 1,634 5.1 -11.7°
Maximum altitude 02:11:38 62° 282° (WNW) 701 3.7 -11.3°
Drops below altitude 10° 02:16:00 10° 4° (N) 1,990 7.0 -10.9°
Sets 02:18:15 0° 7° (N) 2,895 8.1 -10.6°
